Content
SEND FEEDBACK

Daily
Averages
Monthly
Summary
United States of America

LA VERNE, CALIFORNIA


Home > North America > United States > California
Elevation: 960 feet     Latitude: 34 06N     Longitude: 117 48W

WEATHER
 
SELECT A DAY
Number of Records: 186,686;   Date Range: 1/1/95 - 12/16/14
 
SHARE

PRINT THIS DATA

[ ← Previous Day ]
WEATHER ALMANAC - FEBRUARY 13, 2013
[ Next Day → ]
[ °C ]   °F
Weather ElementAverageHighLow
Temperature49.4 °F69.1 °F (1:53 pm)33.1 °F (6:53 am)
Dewpoint34.2 °F39 °F (8:53 pm)28 °F (12:53 pm)
Humidity62.7 %93 % (11:53 pm)22 % (12:53 pm)
Barometer30.21 in30.28 in (7:53 am)30.13 in (3:53 pm)
Wind Speed3.7 mph12.7 mph (3:53 pm)
Weather ElementAverage
Visibility8.6 mi
Wind DirectionESE (113 °)

Weather ElementTotal
Precipitation---
Heating Degree Days13.9 (Base 65)
Growing Degree Days1.1 (Base 50)
Averaged from 23 records on February 13, 2013
WEATHER CONDITIONS BREAKOUT
WIND DIRECTION BREAKOUT
WEATHER BY HOUR - FEBRUARY 13, 2013
[ °C ]   °F
Local TimeTemperatureDewpointHumidityBarometerVisibilityWind DirectionWind SpeedGust SpeedPrecipitationEventsConditions
1:53 AM36.0 °F33.1 °F89 %30.26 in7.0 miCalmClear
2:53 AM37.0 °F32.0 °F82 %30.25 in6.0 miCalmHaze
3:53 AM34.0 °F30.9 °F89 %30.25 in6.0 miEast (100°)3.5 mphClear
4:53 AM35.1 °F32.0 °F89 %30.25 in6.0 miNNE (30°)3.5 mphClear
5:53 AM34.0 °F28.9 °F82 %30.25 in6.0 miCalmHaze
6:53 AM33.1 °F30.9 °F92 %30.27 in10.0 miCalmClear
7:53 AM39.9 °F35.1 °F83 %30.28 in10.0 miCalmClear
8:53 AM46.0 °F37.0 °F71 %30.28 in10.0 miCalmClear
9:53 AM52.0 °F36.0 °F54 %30.27 in10.0 miCalmClear
10:53 AM59.0 °F33.1 °F38 %30.25 in10.0 miCalmClear
11:53 AM64.0 °F32.0 °F30 %30.22 in10.0 miWSW (240°)4.6 mphClear
12:53 PM68.0 °F28.0 °F22 %30.18 in10.0 miWest (270°)8.1 mphClear
1:53 PM69.1 °F33.1 °F26 %30.16 in10.0 miWest (260°)9.2 mphClear
2:53 PM69.1 °F33.1 °F26 %30.14 in10.0 miWest (260°)10.4 mphClear
3:53 PM66.9 °F32.0 °F27 %30.13 in10.0 miWSW (240°)12.7 mphClear
4:53 PM63.0 °F34.0 °F34 %30.14 in10.0 miWSW (250°)11.5 mphClear
5:53 PM54.0 °F35.1 °F49 %30.15 in10.0 miWest (270°)6.9 mphClear
6:53 PM51.1 °F37.0 °F59 %30.16 in10.0 miWest (270°)6.9 mphClear
7:53 PM48.9 °F37.9 °F66 %30.17 in10.0 miCalmClear
8:53 PM46.9 °F39.0 °F74 %30.18 in8.0 miENE (60°)3.5 mphClear
9:53 PM45.0 °F39.0 °F80 %30.18 in7.0 miCalmClear
10:53 PM43.0 °F39.0 °F86 %30.18 in6.0 miCalmClear
11:53 PM41.0 °F39.0 °F93 %30.19 in5.0 miNorth (350°)3.5 mphClear
Hourly data recorded from KCNO, located miles away from La Verne, California







STORIES FROM OUR PARTNERS